Hovedside
METAR-TAF:

METAR-TAF

Lufthavner :

Mora, Sverige

Mora–Siljan

breddegrad: 60-57-31N, lengdegrad: 14-30-40E, høyde over havet: 193 m

Gjeldene værobservasjon

Denne rapporten ble laget for 39 minutter siden, klokken 11:20 UTC
Vind 6 kt fra Øst-sørøst
Temperatur 6°C
Luftfuktighet 65%
Trykk 1018 hPa
Sikt 10 km eller mer

METAR: ESKM 221120Z AUTO 12006KT 9999 BKN028/// 06/00 Q1018

Tid: 13:59 (11:59 UTC)


TAF: fraværende

Værobservasjoner og værvarsel for over 4000 flyplasser (METAR- og TAF-rapporter).

Tilgjengelige stasjoner er representert av de røde og gule prikkene på kartet.

Hold musepekeren over prikken for å se navnet på stasjonen.

Klikk så for å se værobservasjoner og -varsler.

For å forandre kartet kan du klikke på den grønne knappen med svart kryss for å zoome inn, på den grønne knappen med strek for å zoome ut, eller på de grønne pilene for å se tilstøtende kart.


METAR-TAF: